Volver al catálogo

TORO-3

ActivoCienciaSSO
NORAD 68481·PAYLOAD·🇹🇼 Taiwan

Lanzado Mar 30, 2026 desde Vandenberg Space Force Base

Loading…

Próximos Pases (próximas 24 horas)

TLE

ActualizadoSource: Space-Track

Época: Sep 14, 2026, 14:53 UTC

1 68481U 26067BT  26257.62068204  .00001382  00000-0  14101-3 0  9992
2 68481  97.7773 214.7751 0003737  42.5281 317.6227 14.92247819 25066

Sigue TORO-3 en tiempo real con AllMySat

Download on the App Store